Hourly Data Report for October 16, 2017

All times are specified in Local Standard Time (LST). Add 1 hour to adjust for Daylight Saving Time where and when it is observed.

KITCHENER/WATERLOO
ONTARIO

43°27'39.000" N
80°22'43.000" W
321.60 m
6144239
71368
YKF

Download Data

Hourly Data (October 2017)
Hourly Data Report for October 16, 2017
Temp Definition
°C
Dew Point Temp Definition
°C
Rel Hum Definition
%
Wind Dir Definition
10's deg

Wind Spd Definition
km/h
Visibility Definition
km
Stn Press Definition
kPa
Hmdx Definition


Wind Chill Definition


Weather Definition


TIME
00:00 Legend Double Dagger 6.4 3.4 81 33 24 16.1 97.94     LegendNANA
01:00 Legend Double Dagger 5.2 3.2 87 33 11 16.1 98.02     LegendNANA
02:00 Legend Double Dagger 3.9 2.5 90 31 13 16.1 98.08     LegendNANA
03:00 Legend Double Dagger 3.6 2.4 92 32 9 16.1 98.12     LegendNANA
04:00 Legend Double Dagger 2.3 1.9 97 30 9 16.1 98.18     LegendNANA
05:00 Legend Double Dagger 1.9 1.5 97 30 9 16.1 98.25     LegendNANA
06:00 Legend Double Dagger 1.4 1.1 98 30 9 16.1 98.29     LegendNANA
07:00 Legend Double Dagger 1.2 0.9 98 30 11 16.1 98.36     LegendNANA
08:00 Legend Double Dagger 3.5 1.8 88 31 13 16.1 98.44     LegendNANA
09:00 Legend Double Dagger 5.1 0.8 74 32 17 16.1 98.50     LegendNANA
10:00 Legend Double Dagger 6.6 -0.2 62 34 22 16.1 98.51     LegendNANA
11:00 Legend Double Dagger 7.3 -0.3 59 30 21 16.1 98.55     LegendNANA
12:00 Legend Double Dagger 8.2 -0.1 56 29 18 16.1 98.54     LegendNANA
13:00 Legend Double Dagger 9.1 -0.2 52 30 18 16.1 98.51     LegendNANA
14:00 Legend Double Dagger 9.7 -1.2 47 33 18 16.1 98.49     LegendNANA
15:00 Legend Double Dagger 9.6 -2.4 43 34 22 16.1 98.50     LegendNANA
16:00 Legend Double Dagger 9.3 -2.1 45 34 17 16.1 98.54     LegendNANA
17:00 Legend Double Dagger 8.2 -1.8 49 31 9 16.1 98.58     LegendNANA
18:00 Legend Double Dagger 5.3 -0.6 66 32 8 16.1 98.61     LegendNANA
19:00 Legend Double Dagger 2.5 -0.4 81   0 16.1 98.62     LegendNANA
20:00 Legend Double Dagger 1.4 -0.7 86   0 16.1 98.60     LegendNANA
21:00 Legend Double Dagger 0.6 -0.7 91 14 4 16.1 98.59     LegendNANA
22:00 Legend Double Dagger 0.2 -0.5 95 9 4 16.1 98.59     LegendNANA
23:00 Legend Double Dagger 0.2 0.2 100   0 16.1 98.58     LegendNANA

Notes on Data Quality.

Legend

  • E = Estimated
  • M = Missing
  • NA = Not Available
  • ‡ = Partner data that is not subject to review by the National Climate Archives
Date modified: